CT2IRK-11 Weather Reports


time (UTC)temp
C
wind
direction
speed
KPH
gust
KPH
rain 1hr
cm
rain 24hr
cm
rain mn
cm
humidity
%
barometer
mb
20180625193847 21 305 6.4 22.5 0.00 0.00 0.00 70 1011.3
20180625193814 21 305 6.4 22.5 0.00 0.00 0.00 70 1011.3
20180625193347 21 328 8.0 22.5 0.00 0.00 0.00 69 1011.3
20180625193314 21 328 8.0 22.5 0.00 0.00 0.00 69 1011.3
20180625192846 22 326 6.4 22.5 0.00 0.00 0.00 68 1011.3
20180625192814 22 326 6.4 22.5 0.00 0.00 0.00 68 1011.3
20180625192348 22 324 9.7 22.5 0.00 0.00 0.00 68 1011.3
20180625192313 22 324 9.7 22.5 0.00 0.00 0.00 68 1011.3
20180625191847 22 293 9.7 22.5 0.00 0.00 0.00 68 1011.3
20180625191814 22 293 9.7 22.5 0.00 0.00 0.00 68 1011.3
20180625191346 22 329 9.7 22.5 0.00 0.00 0.00 68 1011.1
20180625191314 22 329 9.7 22.5 0.00 0.00 0.00 68 1011.1
20180625190846 22 296 9.7 22.5 0.00 0.00 0.00 67 1011.1
20180625190813 22 296 9.7 22.5 0.00 0.00 0.00 67 1011.1
20180625190348 22 302 9.7 22.5 0.00 0.00 0.00 67 1011.1
20180625190313 22 302 9.7 22.5 0.00 0.00 0.00 67 1011.1
20180625185846 22 269 8.0 22.5 0.00 0.00 0.00 67 1011.2
20180625185814 22 269 8.0 22.5 0.00 0.00 0.00 67 1011.2
20180625185346 22 285 9.7 22.5 0.00 0.00 0.00 67 1011.2
20180625185313 22 285 9.7 22.5 0.00 0.00 0.00 67 1011.2
20180625184847 22 298 9.7 22.5 0.00 0.00 0.00 66 1011.1
20180625184814 22 298 9.7 22.5 0.00 0.00 0.00 66 1011.1
20180625184346 22 315 14.5 22.5 0.00 0.00 0.00 66 1011.1
20180625184314 22 315 14.5 22.5 0.00 0.00 0.00 66 1011.1
20180625183846 22 299 16.1 22.5 0.00 0.00 0.00 66 1011.1
20180625183813 22 299 16.1 22.5 0.00 0.00 0.00 66 1011.1
20180625183348 22 292 16.1 22.5 0.00 0.00 0.00 67 1011.1
20180625183313 22 292 16.1 22.5 0.00 0.00 0.00 67 1011.1
20180625182846 22 337 12.9 22.5 0.00 0.00 0.00 67 1011.1
20180625182814 22 337 12.9 22.5 0.00 0.00 0.00 67 1011.1
20180625182346 23 299 11.3 22.5 0.00 0.00 0.00 66 1011.1
20180625182313 23 299 11.3 22.5 0.00 0.00 0.00 66 1011.1
20180625181846 23 0 11.3 22.5 0.00 0.00 0.00 66 1011.1
20180625181813 23 0 11.3 22.5 0.00 0.00 0.00 66 1011.1
20180625181347 23 315 12.9 22.5 0.00 0.00 0.00 65 1011.0
20180625181313 23 315 12.9 22.5 0.00 0.00 0.00 65 1011.0
20180625180846 23 329 12.9 22.5 0.00 0.00 0.00 66 1011.0
20180625180813 23 329 12.9 22.5 0.00 0.00 0.00 66 1011.0
20180625180346 23 290 16.1 22.5 0.00 0.00 0.00 66 1010.9
20180625180313 23 290 16.1 22.5 0.00 0.00 0.00 66 1010.9
20180625175847 23 287 11.3 22.5 0.00 0.00 0.00 66 1010.9
20180625175813 23 287 11.3 22.5 0.00 0.00 0.00 66 1010.9
20180625175347 23 307 14.5 22.5 0.00 0.00 0.00 66 1010.9
20180625175315 23 307 14.5 22.5 0.00 0.00 0.00 66 1010.9
20180625174847 23 327 11.3 22.5 0.00 0.00 0.00 66 1010.9
20180625174814 23 327 11.3 22.5 0.00 0.00 0.00 66 1010.9
20180625174348 23 336 16.1 22.5 0.00 0.00 0.00 67 1010.9
20180625174313 23 336 16.1 22.5 0.00 0.00 0.00 67 1010.9
20180625173847 22 340 12.9 20.9 0.00 0.00 0.00 67 1010.8
20180625173815 22 340 12.9 20.9 0.00 0.00 0.00 67 1010.8
20180625173346 22 328 11.3 20.9 0.00 0.00 0.00 67 1010.8
20180625173313 22 328 11.3 20.9 0.00 0.00 0.00 67 1010.8
20180625172847 22 331 11.3 20.9 0.00 0.00 0.00 69 1010.8
20180625172814 22 331 11.3 20.9 0.00 0.00 0.00 69 1010.8
20180625172346 22 324 12.9 20.9 0.00 0.00 0.00 71 1010.8
20180625172314 22 324 12.9 20.9 0.00 0.00 0.00 71 1010.8
20180625171847 22 328 14.5 20.9 0.00 0.00 0.00 70 1010.8
20180625171814 22 328 14.5 20.9 0.00 0.00 0.00 70 1010.8
20180625171346 22 292 9.7 20.9 0.00 0.00 0.00 71 1010.8
20180625171314 22 292 9.7 20.9 0.00 0.00 0.00 71 1010.8
20180625170847 22 26 9.7 20.9 0.00 0.00 0.00 71 1010.8
20180625170813 22 26 9.7 20.9 0.00 0.00 0.00 71 1010.8
20180625170347 22 9 9.7 20.9 0.00 0.00 0.00 71 1010.8
20180625170314 22 9 9.7 20.9 0.00 0.00 0.00 71 1010.8
20180625165847 22 325 12.9 20.9 0.00 0.00 0.00 70 1010.7
20180625165814 22 325 12.9 20.9 0.00 0.00 0.00 70 1010.7
20180625165346 23 54 12.9 20.9 0.00 0.00 0.00 70 1010.7
20180625165314 23 54 12.9 20.9 0.00 0.00 0.00 70 1010.7
20180625164846 23 2 14.5 20.9 0.00 0.00 0.00 70 1010.8
20180625164813 23 2 14.5 20.9 0.00 0.00 0.00 70 1010.8
20180625164345 23 26 9.7 20.9 0.00 0.00 0.00 71 1010.8
20180625164313 23 26 9.7 20.9 0.00 0.00 0.00 71 1010.8
20180625163847 23 356 12.9 20.9 0.00 0.00 0.00 71 1010.9
20180625163812 23 356 12.9 20.9 0.00 0.00 0.00 71 1010.9
20180625163346 22 6 14.5 20.9 0.00 0.00 0.00 71 1010.9
20180625163313 22 6 14.5 20.9 0.00 0.00 0.00 71 1010.9
20180625162845 22 2 12.9 20.9 0.00 0.00 0.00 72 1010.9
20180625162813 22 2 12.9 20.9 0.00 0.00 0.00 72 1010.9
20180625162347 22 26 14.5 20.9 0.00 0.00 0.00 72 1010.8
20180625162313 22 26 14.5 20.9 0.00 0.00 0.00 72 1010.8
20180625161846 23 34 12.9 20.9 0.00 0.00 0.00 70 1010.8
20180625161813 23 34 12.9 20.9 0.00 0.00 0.00 70 1010.8
20180625161345 23 4 14.5 20.9 0.00 0.00 0.00 70 1010.8
20180625161314 23 4 14.5 20.9 0.00 0.00 0.00 70 1010.8
20180625160846 23 23 12.9 17.7 0.00 0.00 0.00 70 1010.8
20180625160813 23 23 12.9 17.7 0.00 0.00 0.00 70 1010.8
20180625160346 24 9 14.5 16.1 0.00 0.00 0.00 69 1010.8
20180625160313 24 9 14.5 16.1 0.00 0.00 0.00 69 1010.8
20180625155845 24 22 11.3 16.1 0.00 0.00 0.00 69 1010.9
20180625155813 24 22 11.3 16.1 0.00 0.00 0.00 69 1010.9
20180625155347 24 10 9.7 16.1 0.00 0.00 0.00 70 1010.9
20180625155312 24 10 9.7 16.1 0.00 0.00 0.00 70 1010.9
20180625154847 23 340 8.0 16.1 0.00 0.00 0.00 71 1010.8
20180625154812 23 340 8.0 16.1 0.00 0.00 0.00 71 1010.8
20180625154346 22 22 8.0 16.1 0.00 0.00 0.00 74 1010.8
20180625154314 22 22 8.0 16.1 0.00 0.00 0.00 74 1010.8
20180625153846 22 31 6.4 16.1 0.00 0.00 0.00 74 1010.9
20180625153814 22 31 6.4 16.1 0.00 0.00 0.00 74 1010.9
20180625153346 22 27 9.7 16.1 0.00 0.00 0.00 74 1010.9
20180625153313 22 27 9.7 16.1 0.00 0.00 0.00 74 1010.9
20180625152845 22 12 9.7 16.1 0.00 0.00 0.00 74 1010.9
20180625152812 22 12 9.7 16.1 0.00 0.00 0.00 74 1010.9
20180625152346 22 341 9.7 16.1 0.00 0.00 0.00 74 1010.9
20180625152314 22 341 9.7 16.1 0.00 0.00 0.00 74 1010.9
20180625151846 22 0 12.9 16.1 0.00 0.00 0.00 73 1010.9
20180625151812 22 0 12.9 16.1 0.00 0.00 0.00 73 1010.9
20180625151347 23 323 6.4 11.3 0.00 0.00 0.00 71 1011.0
20180625151312 23 323 6.4 11.3 0.00 0.00 0.00 71 1011.0
20180625150846 23 270 9.7 11.3 0.00 0.00 0.00 71 1011.0
20180625150814 23 270 9.7 11.3 0.00 0.00 0.00 71 1011.0
20180625150346 23 12 8.0 11.3 0.00 0.00 0.00 71 1011.0
20180625150312 23 12 8.0 11.3 0.00 0.00 0.00 71 1011.0
20180625145847 23 355 6.4 11.3 0.00 0.00 0.00 71 1010.9
20180625145812 23 355 6.4 11.3 0.00 0.00 0.00 71 1010.9
20180625145345 23 335 6.4 11.3 0.00 0.00 0.00 70 1010.9
20180625145313 23 335 6.4 11.3 0.00 0.00 0.00 70 1010.9
20180625144845 23 347 6.4 11.3 0.00 0.00 0.00 72 1011.0
20180625144812 23 347 6.4 11.3 0.00 0.00 0.00 72 1011.0
20180625144346 23 45 6.4 11.3 0.00 0.00 0.00 71 1011.0
20180625144313 23 45 6.4 11.3 0.00 0.00 0.00 71 1011.0
20180625143845 23 338 6.4 11.3 0.00 0.00 0.00 72 1011.0
20180625143813 23 338 6.4 11.3 0.00 0.00 0.00 72 1011.0
20180625143345 23 315 6.4 11.3 0.00 0.00 0.00 71 1011.0
20180625143312 23 315 6.4 11.3 0.00 0.00 0.00 71 1011.0
20180625142847 22 306 4.8 11.3 0.00 0.00 0.00 72 1011.0
20180625142812 22 306 4.8 11.3 0.00 0.00 0.00 72 1011.0
20180625142346 22 338 4.8 11.3 0.00 0.00 0.00 73 1011.1
20180625142314 22 338 4.8 11.3 0.00 0.00 0.00 73 1011.1
20180625141846 23 305 6.4 11.3 0.00 0.00 0.00 72 1011.1
20180625141813 23 305 6.4 11.3 0.00 0.00 0.00 72 1011.1
20180625141346 23 328 6.4 11.3 0.00 0.00 0.00 71 1011.1
20180625141313 23 328 6.4 11.3 0.00 0.00 0.00 71 1011.1
20180625140845 23 248 6.4 11.3 0.00 0.00 0.00 70 1011.1
20180625140813 23 248 6.4 11.3 0.00 0.00 0.00 70 1011.1
20180625140345 23 309 6.4 11.3 0.00 0.00 0.00 70 1011.1
20180625140312 23 309 6.4 11.3 0.00 0.00 0.00 70 1011.1
20180625135845 23 278 4.8 11.3 0.00 0.00 0.00 70 1011.1
20180625135812 23 278 4.8 11.3 0.00 0.00 0.00 70 1011.1
20180625135345 23 256 4.8 11.3 0.00 0.00 0.00 70 1011.1
20180625135313 23 256 4.8 11.3 0.00 0.00 0.00 70 1011.1
20180625134845 23 326 3.2 11.3 0.00 0.00 0.00 71 1011.2
20180625134812 23 326 3.2 11.3 0.00 0.00 0.00 71 1011.2
20180625134345 23 173 3.2 11.3 0.00 0.00 0.00 70 1011.2
20180625134312 23 173 3.2 11.3 0.00 0.00 0.00 70 1011.2
20180625133846 23 257 4.8 11.3 0.00 0.00 0.00 71 1011.3
20180625133814 23 257 4.8 11.3 0.00 0.00 0.00 71 1011.3
20180625133346 23 210 4.8 11.3 0.00 0.00 0.00 71 1011.3
20180625133313 23 210 4.8 11.3 0.00 0.00 0.00 71 1011.3
20180625132845 23 280 4.8 11.3 0.00 0.00 0.00 70 1011.3
20180625132812 23 280 4.8 11.3 0.00 0.00 0.00 70 1011.3
20180625132346 23 261 3.2 11.3 0.00 0.00 0.00 71 1011.3
20180625132312 23 261 3.2 11.3 0.00 0.00 0.00 71 1011.3
20180625131845 23 273 6.4 11.3 0.00 0.00 0.00 70 1011.3
20180625131812 23 273 6.4 11.3 0.00 0.00 0.00 70 1011.3
20180625131345 23 277 6.4 11.3 0.00 0.00 0.00 70 1011.4
20180625131312 23 277 6.4 11.3 0.00 0.00 0.00 70 1011.4
20180625130845 23 286 4.8 11.3 0.00 0.00 0.00 70 1011.4
20180625130813 23 286 4.8 11.3 0.00 0.00 0.00 70 1011.4
20180625130345 23 1 4.8 11.3 0.00 0.00 0.00 70 1011.4
20180625130312 23 1 4.8 11.3 0.00 0.00 0.00 70 1011.4
20180625125845 23 349 4.8 11.3 0.00 0.00 0.00 69 1011.4
20180625125812 23 349 4.8 11.3 0.00 0.00 0.00 69 1011.4
20180625125346 23 299 4.8 11.3 0.00 0.00 0.00 69 1011.4
20180625125312 23 299 4.8 11.3 0.00 0.00 0.00 69 1011.4
20180625124846 23 234 4.8 11.3 0.00 0.00 0.00 69 1011.4
20180625124813 23 234 4.8 11.3 0.00 0.00 0.00 69 1011.4
20180625124345 23 292 8.0 11.3 0.00 0.00 0.00 70 1011.4
20180625124312 23 292 8.0 11.3 0.00 0.00 0.00 70 1011.4
20180625123846 22 292 3.2 11.3 0.00 0.00 0.00 71 1011.4
20180625123811 22 292 3.2 11.3 0.00 0.00 0.00 71 1011.4
20180625123345 22 315 4.8 11.3 0.00 0.00 0.00 72 1011.4
20180625123312 22 315 4.8 11.3 0.00 0.00 0.00 72 1011.4
20180625122844 22 43 4.8 11.3 0.00 0.00 0.00 72 1011.4
20180625122812 22 43 4.8 11.3 0.00 0.00 0.00 72 1011.4
20180625122345 22 236 4.8 11.3 0.00 0.00 0.00 73 1011.4
20180625122312 22 236 4.8 11.3 0.00 0.00 0.00 73 1011.4
20180625121845 22 255 4.8 11.3 0.00 0.00 0.00 73 1011.4
20180625121812 22 255 4.8 11.3 0.00 0.00 0.00 73 1011.4
20180625121344 21 227 4.8 11.3 0.00 0.00 0.00 73 1011.5
20180625121312 21 227 4.8 11.3 0.00 0.00 0.00 73 1011.5
20180625120845 21 225 4.8 11.3 0.00 0.00 0.00 73 1011.5
20180625120812 21 225 4.8 11.3 0.00 0.00 0.00 73 1011.5
20180625120345 21 270 4.8 11.3 0.00 0.00 0.00 73 1011.5
20180625120312 21 270 4.8 11.3 0.00 0.00 0.00 73 1011.5
20180625115845 21 84 3.2 11.3 0.00 0.00 0.00 75 1011.4
20180625115813 21 84 3.2 11.3 0.00 0.00 0.00 75 1011.4
20180625115345 21 3 4.8 11.3 0.00 0.00 0.00 75 1011.4
20180625115313 21 3 4.8 11.3 0.00 0.00 0.00 75 1011.4
20180625114845 21 300 3.2 11.3 0.00 0.00 0.00 73 1011.5
20180625114812 21 300 3.2 11.3 0.00 0.00 0.00 73 1011.5
20180625114345 21 283 3.2 11.3 0.00 0.00 0.00 74 1011.5
20180625114313 21 283 3.2 11.3 0.00 0.00 0.00 74 1011.5
20180625113845 21 305 3.2 11.3 0.00 0.00 0.00 74 1011.4
20180625113812 21 305 3.2 11.3 0.00 0.00 0.00 74 1011.4
20180625113346 21 238 4.8 11.3 0.00 0.00 0.00 73 1011.4
20180625113311 21 238 4.8 11.3 0.00 0.00 0.00 73 1011.4
20180625112846 21 261 6.4 11.3 0.00 0.00 0.00 73 1011.4
20180625112813 21 261 6.4 11.3 0.00 0.00 0.00 73 1011.4
20180625112346 21 270 4.8 11.3 0.00 0.00 0.00 73 1011.4
20180625112311 21 270 4.8 11.3 0.00 0.00 0.00 73 1011.4
20180625111846 21 308 3.2 11.3 0.00 0.00 0.00 73 1011.4
20180625111811 21 308 3.2 11.3 0.00 0.00 0.00 73 1011.4
20180625111345 21 248 4.8 11.3 0.00 0.00 0.00 73 1011.5
20180625111313 21 248 4.8 11.3 0.00 0.00 0.00 73 1011.5
20180625110845 21 270 4.8 11.3 0.00 0.00 0.00 75 1011.5
20180625110812 21 270 4.8 11.3 0.00 0.00 0.00 75 1011.5
20180625110345 21 252 4.8 11.3 0.00 0.00 0.00 75 1011.5
20180625110312 21 252 4.8 11.3 0.00 0.00 0.00 75 1011.5
20180625105845 21 281 3.2 11.3 0.00 0.00 0.00 76 1011.4
20180625105811 21 281 3.2 11.3 0.00 0.00 0.00 76 1011.4
20180625105345 21 270 4.8 11.3 0.00 0.00 0.00 75 1011.4
20180625105312 21 270 4.8 11.3 0.00 0.00 0.00 75 1011.4
20180625104846 20 214 3.2 11.3 0.00 0.00 0.00 77 1011.5
20180625104811 20 214 3.2 11.3 0.00 0.00 0.00 77 1011.5
20180625104346 20 305 4.8 11.3 0.00 0.00 0.00 77 1011.5
20180625104311 20 305 4.8 11.3 0.00 0.00 0.00 77 1011.5
20180625103844 20 303 3.2 11.3 0.00 0.00 0.00 77 1011.5
20180625103811 20 303 3.2 11.3 0.00 0.00 0.00 77 1011.5
20180625103346 20 325 3.2 11.3 0.00 0.00 0.00 76 1011.5
20180625103311 20 325 3.2 11.3 0.00 0.00 0.00 76 1011.5
20180625102845 20 257 4.8 11.3 0.00 0.00 0.00 76 1011.5
20180625102811 20 257 4.8 11.3 0.00 0.00 0.00 76 1011.5
20180625102345 20 338 1.6 11.3 0.00 0.00 0.00 77 1011.4
20180625102312 20 338 1.6 11.3 0.00 0.00 0.00 77 1011.4
20180625101845 20 246 4.8 11.3 0.00 0.00 0.00 77 1011.4
20180625101812 20 246 4.8 11.3 0.00 0.00 0.00 77 1011.4
20180625101345 20 261 4.8 11.3 0.00 0.00 0.00 77 1011.3
20180625101311 20 261 4.8 11.3 0.00 0.00 0.00 77 1011.3
20180625100845 20 273 4.8 11.3 0.00 0.00 0.00 77 1011.3
20180625100812 20 273 4.8 11.3 0.00 0.00 0.00 77 1011.3
20180625100345 20 273 3.2 11.3 0.00 0.00 0.00 77 1011.3
20180625100312 20 273 3.2 11.3 0.00 0.00 0.00 77 1011.3
20180625095845 20 292 1.6 11.3 0.00 0.00 0.00 77 1011.2
20180625095812 20 292 1.6 11.3 0.00 0.00 0.00 77 1011.2
20180625095345 20 281 3.2 11.3 0.00 0.00 0.00 77 1011.2
20180625095312 20 281 3.2 11.3 0.00 0.00 0.00 77 1011.2
20180625094845 20 257 3.2 11.3 0.00 0.00 0.00 77 1011.1
20180625094812 20 257 3.2 11.3 0.00 0.00 0.00 77 1011.1
20180625094345 20 250 4.8 11.3 0.00 0.00 0.00 77 1011.1
20180625094311 20 250 4.8 11.3 0.00 0.00 0.00 77 1011.1
20180625093845 20 270 4.8 11.3 0.00 0.00 0.00 76 1011.0
20180625093812 20 270 4.8 11.3 0.00 0.00 0.00 76 1011.0
20180625093345 20 268 4.8 11.3 0.00 0.00 0.00 75 1011.0
20180625093311 20 268 4.8 11.3 0.00 0.00 0.00 75 1011.0
20180625092845 21 255 3.2 11.3 0.00 0.00 0.00 74 1011.0
20180625092811 21 255 3.2 11.3 0.00 0.00 0.00 74 1011.0
20180625092344 21 331 3.2 11.3 0.00 0.00 0.00 75 1010.9
20180625092311 21 331 3.2 11.3 0.00 0.00 0.00 75 1010.9
20180625091845 20 24 0.0 11.3 0.00 0.00 0.00 78 1010.9
20180625091811 20 24 0.0 11.3 0.00 0.00 0.00 78 1010.9
20180625091345 20 0 1.6 11.3 0.00 0.00 0.00 79 1010.9
20180625091311 20 0 1.6 11.3 0.00 0.00 0.00 79 1010.9
20180625090845 20 17 4.8 11.3 0.00 0.00 0.00 78 1010.9
20180625090812 20 17 4.8 11.3 0.00 0.00 0.00 78 1010.9
20180625090344 20 80 1.6 11.3 0.00 0.00 0.00 78 1010.9
20180625090312 20 80 1.6 11.3 0.00 0.00 0.00 78 1010.9
20180625085845 20 338 3.2 11.3 0.00 0.00 0.00 79 1010.9
20180625085811 20 338 3.2 11.3 0.00 0.00 0.00 79 1010.9
20180625085345 20 329 0.0 11.3 0.00 0.00 0.00 79 1010.9
20180625085312 20 329 0.0 11.3 0.00 0.00 0.00 79 1010.9
20180625084844 20 241 0.0 11.3 0.00 0.00 0.00 80 1011.0
20180625084812 20 241 0.0 11.3 0.00 0.00 0.00 80 1011.0
20180625084344 20 348 0.0 11.3 0.00 0.00 0.00 80 1011.0
20180625084312 20 348 0.0 11.3 0.00 0.00 0.00 80 1011.0
20180625083843 19 22 3.2 11.3 0.00 0.00 0.00 81 1011.0
20180625083811 19 22 3.2 11.3 0.00 0.00 0.00 81 1011.0
20180625083343 19 325 1.6 11.3 0.00 0.00 0.00 81 1011.0
20180625083311 19 325 1.6 11.3 0.00 0.00 0.00 81 1011.0
20180625082845 19 255 0.0 11.3 0.00 0.00 0.00 81 1011.0
20180625082811 19 255 0.0 11.3 0.00 0.00 0.00 81 1011.0
20180625082344 19 160 1.6 11.3 0.00 0.00 0.00 82 1010.8
20180625082312 19 160 1.6 11.3 0.00 0.00 0.00 82 1010.8
20180625081844 18 270 3.2 11.3 0.00 0.00 0.00 82 1010.8
20180625081812 18 270 3.2 11.3 0.00 0.00 0.00 82 1010.8
20180625081344 18 272 3.2 11.3 0.00 0.00 0.00 82 1010.7
20180625081312 18 272 3.2 11.3 0.00 0.00 0.00 82 1010.7
20180625080843 19 275 3.2 11.3 0.00 0.00 0.00 82 1010.7
20180625080811 19 275 3.2 11.3 0.00 0.00 0.00 82 1010.7
20180625080343 18 221 1.6 11.3 0.00 0.00 0.00 82 1010.6
20180625080311 18 221 1.6 11.3 0.00 0.00 0.00 82 1010.6
20180625075845 18 187 3.2 11.3 0.00 0.00 0.00 83 1010.5
20180625075811 18 187 3.2 11.3 0.00 0.00 0.00 83 1010.5
20180625075344 18 224 4.8 11.3 0.00 0.00 0.00 83 1010.5
20180625075312 18 224 4.8 11.3 0.00 0.00 0.00 83 1010.5
20180625074844 18 219 3.2 11.3 0.00 0.00 0.00 83 1010.5
20180625074812 18 219 3.2 11.3 0.00 0.00 0.00 83 1010.5
20180625074344 18 70 1.6 11.3 0.00 0.00 0.00 84 1010.5
20180625074313 18 70 1.6 11.3 0.00 0.00 0.00 84 1010.5
20180625073843 18 248 1.6 11.3 0.00 0.00 0.00 84 1010.4
20180625073811 18 248 1.6 11.3 0.00 0.00 0.00 84 1010.4
20180625073346 18 235 3.2 11.3 0.00 0.00 0.00 84 1010.4
20180625073312 18 235 3.2 11.3 0.00 0.00 0.00 84 1010.4
20180625072845 18 241 3.2 11.3 0.00 0.00 0.00 84 1010.4
20180625072813 18 241 3.2 11.3 0.00 0.00 0.00 84 1010.4
20180625072343 18 171 3.2 11.3 0.00 0.00 0.00 85 1010.4
20180625072312 18 171 3.2 11.3 0.00 0.00 0.00 85 1010.4
20180625071843 18 232 3.2 11.3 0.00 0.00 0.00 85 1010.4
20180625071811 18 232 3.2 11.3 0.00 0.00 0.00 85 1010.4
20180625071345 18 137 0.0 11.3 0.00 0.00 0.00 85 1010.3
20180625071310 18 137 0.0 11.3 0.00 0.00 0.00 85 1010.3
20180625070844 18 185 4.8 11.3 0.00 0.00 0.00 85 1010.3
20180625070812 18 185 4.8 11.3 0.00 0.00 0.00 85 1010.3
20180625070344 18 256 4.8 11.3 0.00 0.00 0.00 85 1010.3
20180625070312 18 256 4.8 11.3 0.00 0.00 0.00 85 1010.3
20180625065844 18 202 3.2 11.3 0.00 0.00 0.00 85 1010.3
20180625065811 18 202 3.2 11.3 0.00 0.00 0.00 85 1010.3
20180625065343 17 197 3.2 11.3 0.00 0.00 0.00 85 1010.3
20180625065311 17 197 3.2 11.3 0.00 0.00 0.00 85 1010.3
20180625064843 17 209 4.8 11.3 0.00 0.00 0.00 85 1010.0
20180625064811 17 209 4.8 11.3 0.00 0.00 0.00 85 1010.0
20180625064344 17 207 4.8 11.3 0.00 0.00 0.00 85 1010.0
20180625064311 17 207 4.8 11.3 0.00 0.00 0.00 85 1010.0
20180625063843 17 259 4.8 11.3 0.00 0.00 0.00 85 1010.0
20180625063811 17 259 4.8 11.3 0.00 0.00 0.00 85 1010.0
20180625063343 17 169 4.8 11.3 0.00 0.00 0.00 85 1010.0
20180625063310 17 169 4.8 11.3 0.00 0.00 0.00 85 1010.0
20180625062843 17 203 3.2 11.3 0.00 0.00 0.00 86 1010.0
20180625062810 17 203 3.2 11.3 0.00 0.00 0.00 86 1010.0
20180625062344 17 195 4.8 11.3 0.00 0.00 0.00 86 1009.9
20180625062312 17 195 4.8 11.3 0.00 0.00 0.00 86 1009.9
20180625061844 17 164 3.2 11.3 0.00 0.00 0.00 86 1009.9
20180625061812 17 164 3.2 11.3 0.00 0.00 0.00 86 1009.9
20180625061344 17 263 3.2 11.3 0.00 0.00 0.00 86 1009.9
20180625061311 17 263 3.2 11.3 0.00 0.00 0.00 86 1009.9
20180625060843 17 227 3.2 11.3 0.00 0.00 0.00 86 1009.9
20180625060810 17 227 3.2 11.3 0.00 0.00 0.00 86 1009.9
20180625060344 17 179 4.8 11.3 0.00 0.00 0.00 86 1009.9
20180625060311 17 179 4.8 11.3 0.00 0.00 0.00 86 1009.9
20180625055844 17 207 4.8 11.3 0.00 0.00 0.00 86 1009.6
20180625055810 17 207 4.8 11.3 0.00 0.00 0.00 86 1009.6
20180625055343 17 202 3.2 11.3 0.00 0.00 0.00 86 1009.6
20180625055310 17 202 3.2 11.3 0.00 0.00 0.00 86 1009.6
20180625054844 17 168 3.2 11.3 0.00 0.00 0.00 86 1009.6
20180625054810 17 168 3.2 11.3 0.00 0.00 0.00 86 1009.6
20180625054344 17 182 3.2 11.3 0.00 0.00 0.00 86 1009.6
20180625054312 17 182 3.2 11.3 0.00 0.00 0.00 86 1009.6
20180625053843 17 164 4.8 11.3 0.00 0.00 0.00 86 1009.6
20180625053811 17 164 4.8 11.3 0.00 0.00 0.00 86 1009.6
20180625053344 17 168 6.4 11.3 0.00 0.00 0.00 86 1009.6
20180625053310 17 168 6.4 11.3 0.00 0.00 0.00 86 1009.6
20180625052843 17 208 6.4 11.3 0.00 0.00 0.00 86 1009.6
20180625052810 17 208 6.4 11.3 0.00 0.00 0.00 86 1009.6
20180625052344 17 202 6.4 11.3 0.00 0.00 0.00 86 1009.6
20180625052310 17 202 6.4 11.3 0.00 0.00 0.00 86 1009.6
20180625051844 17 181 4.8 11.3 0.00 0.00 0.00 86 1009.6
20180625051811 17 181 4.8 11.3 0.00 0.00 0.00 86 1009.6
20180625051344 17 224 4.8 11.3 0.00 0.00 0.00 86 1009.4
20180625050936 17 221 3.2 11.3 0.00 0.00 0.00 85 1009.4
20180625050810 17 199 4.8 11.3 0.00 0.00 0.00 85 1009.4
20180625050437 17 250 3.2 11.3 0.00 0.00 0.00 85 1009.4
20180625050310 17 250 4.8 11.3 0.00 0.00 0.00 85 1009.4
20180625045937 17 186 4.8 11.3 0.00 0.00 0.00 85 1009.1
20180625045810 17 195 4.8 11.3 0.00 0.00 0.00 85 1009.1
20180625045436 17 189 6.4 11.3 0.00 0.00 0.00 85 1009.1
20180625045310 17 213 4.8 11.3 0.00 0.00 0.00 85 1009.1
20180625044937 17 195 3.2 11.3 0.00 0.00 0.00 85 1009.1
20180625044810 17 214 3.2 11.3 0.00 0.00 0.00 85 1009.1
20180625044437 17 185 4.8 11.3 0.00 0.00 0.00 85 1009.1
20180625044309 17 239 3.2 11.3 0.00 0.00 0.00 85 1009.1
20180625043936 17 221 3.2 11.3 0.00 0.00 0.00 85 1009.1
20180625043810 17 214 3.2 11.3 0.00 0.00 0.00 85 1009.0
20180625043437 17 178 0.0 11.3 0.00 0.00 0.00 85 1009.0
20180625043309 17 191 1.6 11.3 0.00 0.00 0.00 85 1009.0
20180625042936 17 223 3.2 11.3 0.00 0.00 0.00 85 1009.0
20180625042811 17 250 3.2 11.3 0.00 0.00 0.00 85 1009.0
20180625042436 17 218 4.8 11.3 0.00 0.00 0.00 85 1008.8
20180625042310 17 186 4.8 11.3 0.00 0.00 0.00 85 1008.8
20180625041937 17 158 4.8 11.3 0.00 0.00 0.00 85 1008.8
20180625041809 17 229 4.8 11.3 0.00 0.00 0.00 85 1008.8
20180625041436 17 265 4.8 11.3 0.00 0.00 0.00 85 1008.9
20180625041311 17 209 4.8 11.3 0.00 0.00 0.00 85 1008.9
20180625040936 17 158 6.4 11.3 0.00 0.00 0.00 85 1008.9
20180625040810 17 192 4.8 11.3 0.00 0.00 0.00 86 1008.9
20180625040437 17 215 4.8 11.3 0.00 0.00 0.00 86 1008.9
20180625040309 17 211 4.8 11.3 0.00 0.00 0.00 86 1008.9
20180625035936 17 220 4.8 11.3 0.00 0.00 0.00 86 1008.9
20180625035811 17 235 4.8 11.3 0.00 0.00 0.00 86 1008.9
20180625035436 17 197 4.8 11.3 0.00 0.00 0.00 86 1008.9
20180625035310 17 191 4.8 11.3 0.00 0.00 0.00 86 1008.9
20180625034936 17 196 4.8 11.3 0.00 0.00 0.00 86 1009.0
20180625034809 17 241 4.8 11.3 0.00 0.00 0.00 86 1009.0
20180625034436 17 188 4.8 11.3 0.00 0.00 0.00 86 1009.0
20180625034311 17 192 4.8 11.3 0.00 0.00 0.00 86 1009.0
20180625033936 17 205 8.0 11.3 0.00 0.00 0.00 86 1009.0
20180625033810 17 213 6.4 9.7 0.00 0.00 0.00 86 1008.9
20180625033436 17 204 8.0 9.7 0.00 0.00 0.00 86 1008.9
20180625033309 17 198 6.4 9.7 0.00 0.00 0.00 86 1008.9
20180625032936 17 193 6.4 9.7 0.00 0.00 0.00 86 1008.9
20180625032811 17 183 6.4 9.7 0.00 0.00 0.00 86 1008.9
20180625032435 17 171 8.0 9.7 0.00 0.00 0.00 86 1008.7
20180625032310 17 192 8.0 9.7 0.00 0.00 0.00 86 1008.7
20180625031936 17 190 6.4 9.7 0.00 0.00 0.00 86 1008.7
20180625031809 17 201 6.4 8.0 0.00 0.00 0.00 86 1008.7
20180625031436 17 182 4.8 8.0 0.00 0.00 0.00 86 1008.7
20180625031311 17 191 4.8 8.0 0.00 0.00 0.00 86 1008.7
20180625030936 17 197 4.8 8.0 0.00 0.00 0.00 86 1008.7
20180625030809 17 180 6.4 8.0 0.00 0.00 0.00 86 1008.7
20180625030435 17 180 6.4 8.0 0.00 0.00 0.00 86 1008.7
20180625030310 17 196 6.4 8.0 0.00 0.00 0.00 86 1008.7
20180625025937 17 212 3.2 8.0 0.00 0.00 0.00 86 1008.6
20180625025810 17 225 3.2 8.0 0.00 0.00 0.00 86 1008.6
20180625025435 17 238 4.8 8.0 0.00 0.00 0.00 86 1008.6
20180625025310 17 229 4.8 8.0 0.00 0.00 0.00 86 1008.6
20180625024936 17 214 3.2 8.0 0.00 0.00 0.00 85 1008.6
20180625024811 17 259 4.8 8.0 0.00 0.00 0.00 85 1008.6
20180625024436 17 231 1.6 8.0 0.00 0.00 0.00 85 1008.6
20180625024310 17 299 0.0 8.0 0.00 0.00 0.00 85 1008.6
20180625023935 17 36 3.2 8.0 0.00 0.00 0.00 85 1008.6
20180625023810 17 81 3.2 8.0 0.00 0.00 0.00 85 1008.4
20180625023436 17 77 3.2 8.0 0.00 0.00 0.00 85 1008.3
20180625023311 17 33 3.2 8.0 0.00 0.00 0.00 85 1008.3
20180625022937 17 72 4.8 8.0 0.00 0.00 0.00 85 1008.3
20180625022809 17 86 4.8 8.0 0.00 0.00 0.00 85 1008.3
20180625022436 17 103 3.2 8.0 0.00 0.00 0.00 85 1008.4
20180625022309 17 112 3.2 8.0 0.00 0.00 0.00 85 1008.4
20180625021935 17 103 4.8 8.0 0.00 0.00 0.00 85 1008.4
20180625021810 17 79 4.8 8.0 0.00 0.00 0.00 85 1008.4
20180625021437 17 67 3.2 8.0 0.00 0.00 0.00 84 1008.6
20180625021309 17 124 3.2 8.0 0.00 0.00 0.00 84 1008.7
20180625020936 17 90 3.2 8.0 0.00 0.00 0.00 84 1008.7
20180625020811 17 75 1.6 8.0 0.00 0.00 0.00 84 1008.7
20180625020435 17 212 0.0 8.0 0.00 0.00 0.00 84 1008.7
20180625020309 17 210 0.0 8.0 0.00 0.00 0.00 84 1008.7
20180625015935 18 192 0.0 8.0 0.00 0.00 0.00 84 1008.7
20180625015810 18 89 3.2 8.0 0.00 0.00 0.00 84 1008.7
20180625015435 18 185 0.0 8.0 0.00 0.00 0.00 84 1008.7
20180625015310 18 125 0.0 8.0 0.00 0.00 0.00 84 1008.7
20180625014936 18 184 3.2 8.0 0.00 0.00 0.00 84 1008.8
20180625014810 18 180 3.2 8.0 0.00 0.00 0.00 84 1008.8
20180625014436 18 142 3.2 8.0 0.00 0.00 0.00 84 1008.8
20180625014309 18 127 1.6 8.0 0.00 0.00 0.00 84 1008.8
20180625013936 18 202 3.2 8.0 0.00 0.00 0.00 84 1008.8
20180625013810 18 149 3.2 8.0 0.00 0.00 0.00 84 1008.8
20180625013436 18 112 3.2 8.0 0.00 0.00 0.00 84 1008.8
20180625013309 18 92 3.2 8.0 0.00 0.00 0.00 84 1008.8
20180625012935 18 165 3.2 8.0 0.00 0.00 0.00 84 1008.8
20180625012810 18 131 4.8 8.0 0.00 0.00 0.00 84 1008.8
20180625012435 18 155 4.8 8.0 0.00 0.00 0.00 84 1008.7
20180625012309 18 180 3.2 8.0 0.00 0.00 0.00 84 1008.7
20180625011936 18 165 1.6 8.0 0.00 0.00 0.00 84 1008.7
20180625011809 18 263 0.0 8.0 0.00 0.00 0.00 84 1008.7
20180625011435 18 243 3.2 8.0 0.00 0.00 0.00 84 1008.7
20180625011310 18 190 3.2 8.0 0.00 0.00 0.00 84 1008.7
20180625010934 18 116 3.2 6.4 0.00 0.00 0.00 84 1008.7
20180625010809 18 145 3.2 6.4 0.00 0.00 0.00 84 1008.7
20180625010436 18 267 0.0 6.4 0.00 0.00 0.00 84 1008.7
20180625010309 18 268 1.6 6.4 0.00 0.00 0.00 84 1008.7
20180625005935 18 180 0.0 6.4 0.00 0.00 0.00 84 1008.6
20180625005810 18 182 1.6 6.4 0.00 0.00 0.00 84 1008.6
20180625005436 18 135 4.8 6.4 0.00 0.00 0.00 84 1008.6
20180625005309 18 151 4.8 6.4 0.00 0.00 0.00 84 1008.6
20180625004935 18 165 0.0 6.4 0.00 0.00 0.00 84 1008.7
20180625004810 18 152 1.6 6.4 0.00 0.00 0.00 84 1008.7
20180625004436 18 147 1.6 6.4 0.00 0.00 0.00 84 1008.7
20180625004309 18 158 3.2 6.4 0.00 0.00 0.00 84 1008.7
20180625003935 18 128 1.6 6.4 0.00 0.00 0.00 84 1008.8
20180625003810 18 180 0.0 6.4 0.00 0.00 0.00 84 1008.8
20180625003436 18 97 3.2 6.4 0.00 0.00 0.00 84 1008.8
20180625003309 18 82 1.6 6.4 0.00 0.00 0.00 84 1008.8
20180625002935 18 192 3.2 6.4 0.00 0.00 0.00 84 1008.8
20180625002809 18 148 4.8 6.4 0.00 0.00 0.00 84 1008.8
20180625002436 18 180 3.2 6.4 0.00 0.00 0.00 84 1008.9
20180625002309 18 175 3.2 6.4 0.00 0.00 0.00 84 1008.9
20180625001936 18 179 3.2 6.4 0.00 0.00 0.00 84 1008.9
20180625001809 18 159 4.8 6.4 0.00 0.00 0.00 84 1008.9
20180625001435 18 189 3.2 6.4 0.00 0.00 0.00 84 1008.9
20180625001309 18 174 3.2 6.4 0.00 0.00 0.00 84 1009.1
20180625000935 18 180 4.8 6.4 0.00 0.00 0.00 84 1009.1
20180625000810 18 174 4.8 6.4 0.00 0.00 0.00 84 1009.1
20180625000435 18 189 4.8 6.4 0.00 0.00 0.00 84 1009.1
20180625000310 18 177 4.8 6.4 0.00 0.00 0.00 84 1009.1
20180624235936 18 180 4.8 6.4 0.00 0.00 0.00 84 1009.1
20180624235808 18 184 4.8 6.4 0.00 0.00 0.00 84 1009.1
20180624235436 18 202 3.2 6.4 0.00 0.00 0.00 84 1009.1
20180624235309 18 196 4.8 6.4 0.00 0.00 0.00 84 1009.1
20180624234936 18 173 3.2 6.4 0.00 0.00 0.00 84 1009.2
20180624234809 18 176 4.8 6.4 0.00 0.00 0.00 84 1009.2
20180624234435 18 211 4.8 6.4 0.00 0.00 0.00 84 1009.2
20180624234310 18 202 4.8 6.4 0.00 0.00 0.00 84 1009.2
20180624233936 18 212 4.8 6.4 0.00 0.00 0.00 84 1009.2
20180624233809 18 202 6.4 6.4 0.00 0.00 0.00 84 1009.2
20180624233434 18 201 4.8 4.8 0.00 0.00 0.00 84 1009.2
20180624233309 18 166 3.2 4.8 0.00 0.00 0.00 84 1009.2
20180624232934 18 245 4.8 4.8 0.00 0.00 0.00 84 1009.2
20180624232809 18 225 4.8 4.8 0.00 0.00 0.00 84 1009.2
20180624232436 18 258 4.8 4.8 0.00 0.00 0.00 83 1009.1
20180624232308 18 261 4.8 4.8 0.00 0.00 0.00 83 1009.1
20180624231935 18 262 3.2 4.8 0.00 0.00 0.00 83 1009.1
20180624231809 18 292 3.2 4.8 0.00 0.00 0.00 83 1009.1
20180624231435 18 270 3.2 4.8 0.00 0.00 0.00 83 1009.2
20180624231310 18 275 3.2 4.8 0.00 0.00 0.00 82 1009.2
20180624230935 18 45 3.2 4.8 0.00 0.00 0.00 82 1009.2
20180624230809 18 50 3.2 4.8 0.00 0.00 0.00 82 1009.2
20180624230435 18 29 4.8 4.8 0.00 0.00 0.00 82 1009.2
20180624230308 18 22 4.8 4.8 0.00 0.00 0.00 82 1009.2
20180624225934 18 27 4.8 20.9 0.00 0.00 0.00 82 1009.0
20180624225809 18 35 3.2 20.9 0.00 0.00 0.00 82 1009.0
20180624225435 18 52 4.8 20.9 0.00 0.00 0.00 82 1009.0
20180624225308 18 41 4.8 20.9 0.00 0.00 0.00 82 1009.0
20180624224934 18 19 4.8 20.9 0.00 0.00 0.00 82 1009.1
20180624224809 18 49 4.8 20.9 0.00 0.00 0.00 82 1009.1
20180624224435 18 34 4.8 20.9 0.00 0.00 0.00 82 1009.1
20180624224310 18 25 4.8 20.9 0.00 0.00 0.00 82 1009.1
20180624223934 18 23 6.4 20.9 0.00 0.00 0.00 82 1009.1
20180624223809 18 36 6.4 20.9 0.00 0.00 0.00 82 1009.2
20180624223434 18 35 4.8 20.9 0.00 0.00 0.00 82 1009.2
20180624223309 18 22 4.8 20.9 0.00 0.00 0.00 82 1009.2
20180624222935 19 34 4.8 20.9 0.00 0.00 0.00 82 1009.2
20180624222809 19 36 4.8 20.9 0.00 0.00 0.00 82 1009.2
20180624222434 19 32 4.8 20.9 0.00 0.00 0.00 81 1009.2
20180624222309 19 35 4.8 20.9 0.00 0.00 0.00 81 1009.2
20180624221934 19 22 4.8 20.9 0.00 0.00 0.00 81 1009.2
20180624221809 19 22 4.8 20.9 0.00 0.00 0.00 81 1009.2
20180624221435 19 12 3.2 20.9 0.00 0.00 0.00 80 1009.2
20180624221309 19 7 4.8 20.9 0.00 0.00 0.00 80 1009.1
20180624220934 19 23 3.2 20.9 0.00 0.00 0.00 80 1009.1
20180624220809 19 22 4.8 20.9 0.00 0.00 0.00 80 1009.1
20180624220436 19 34 4.8 20.9 0.00 0.00 0.00 80 1009.1
20180624220308 19 22 4.8 20.9 0.00 0.00 0.00 80 1009.1
20180624215935 19 34 4.8 20.9 0.00 0.00 0.00 80 1009.1
20180624215808 19 23 3.2 20.9 0.00 0.00 0.00 80 1009.1
20180624215434 19 52 6.4 20.9 0.00 0.00 0.00 80 1009.1
20180624215309 19 34 8.0 20.9 0.00 0.00 0.00 80 1009.1
20180624214936 19 40 6.4 20.9 0.00 0.00 0.00 80 1009.0
20180624214808 19 45 6.4 20.9 0.00 0.00 0.00 80 1009.0
20180624214435 19 50 6.4 20.9 0.00 0.00 0.00 79 1009.0
20180624214308 19 68 8.0 20.9 0.00 0.00 0.00 79 1009.0
20180624213934 19 22 6.4 20.9 0.00 0.00 0.00 79 1009.0
20180624213808 19 40 6.4 20.9 0.00 0.00 0.00 79 1008.9
20180624213434 19 29 6.4 20.9 0.00 0.00 0.00 79 1008.8
20180624213309 19 29 6.4 20.9 0.00 0.00 0.00 79 1008.8
20180624212934 19 55 6.4 20.9 0.00 0.00 0.00 79 1008.8
20180624212809 19 49 8.0 20.9 0.00 0.00 0.00 79 1008.8
20180624212435 19 52 6.4 20.9 0.00 0.00 0.00 79 1008.7
20180624212308 19 43 8.0 20.9 0.00 0.00 0.00 79 1008.7
20180624211934 19 23 9.7 20.9 0.00 0.00 0.00 79 1008.7
20180624211809 19 45 9.7 20.9 0.00 0.00 0.00 79 1008.7
20180624211434 19 67 8.0 20.9 0.00 0.00 0.00 79 1008.7
20180624211309 19 52 9.7 20.9 0.00 0.00 0.00 79 1008.7
20180624210935 19 22 9.7 20.9 0.00 0.00 0.00 79 1008.7
20180624210808 19 22 9.7 20.9 0.00 0.00 0.00 79 1008.7
20180624210434 20 72 9.7 20.9 0.00 0.00 0.00 79 1008.7
20180624210309 20 43 9.7 20.9 0.00 0.00 0.00 79 1008.6
20180624205935 20 22 8.0 20.9 0.00 0.00 0.00 78 1008.6
20180624205808 20 22 8.0 20.9 0.00 0.00 0.00 78 1008.6
20180624205434 20 22 9.7 20.9 0.00 0.00 0.00 78 1008.6
20180624205309 20 29 8.0 20.9 0.00 0.00 0.00 78 1008.6
20180624204934 20 38 9.7 20.9 0.00 0.00 0.00 78 1008.5
20180624204809 20 22 9.7 20.9 0.00 0.00 0.00 78 1008.5
20180624204434 20 22 9.7 20.9 0.00 0.00 0.00 78 1008.5
20180624204309 20 41 8.0 20.9 0.00 0.00 0.00 78 1008.5
20180624203935 20 22 9.7 20.9 0.00 0.00 0.00 77 1008.5
20180624203808 20 42 9.7 20.9 0.00 0.00 0.00 77 1008.4
20180624203434 20 31 11.3 20.9 0.00 0.00 0.00 77 1008.4
20180624203309 20 45 12.9 20.9 0.00 0.00 0.00 77 1008.4
20180624202935 20 45 11.3 20.9 0.00 0.00 0.00 77 1008.4
20180624202809 20 42 9.7 20.9 0.00 0.00 0.00 77 1008.4
20180624202434 20 5 9.7 20.9 0.00 0.00 0.00 76 1008.1
20180624202309 20 13 8.0 20.9 0.00 0.00 0.00 76 1008.1
20180624201934 20 22 11.3 20.9 0.00 0.00 0.00 76 1008.1
20180624201808 20 22 9.7 20.9 0.00 0.00 0.00 76 1008.1
20180624201434 20 63 11.3 20.9 0.00 0.00 0.00 75 1008.1
20180624201308 20 24 8.0 20.9 0.00 0.00 0.00 75 1008.1
20180624200935 21 67 9.7 20.9 0.00 0.00 0.00 75 1008.1
20180624200808 21 62 9.7 20.9 0.00 0.00 0.00 75 1008.1
20180624200433 21 68 12.9 20.9 0.00 0.00 0.00 75 1008.1
20180624200308 21 40 12.9 20.9 0.00 0.00 0.00 75 1008.0
20180624195933 21 45 9.7 20.9 0.00 0.00 0.00 74 1007.9
20180624195808 21 25 9.7 20.9 0.00 0.00 0.00 74 1007.9
20180624195435 21 44 11.3 20.9 0.00 0.00 0.00 74 1007.9
20180624195307 21 39 12.9 20.9 0.00 0.00 0.00 74 1007.9
20180624194933 21 84 11.3 20.9 0.00 0.00 0.00 74 1007.8
20180624194808 21 60 11.3 20.9 0.00 0.00 0.00 74 1007.8
20180624194433 21 32 12.9 20.9 0.00 0.00 0.00 73 1007.8
20180624194308 21 22 12.9 20.9 0.00 0.00 0.00 73 1007.8